Location: Peterborough
(44.3091°N, 78.3197°W)
Time: 04:34:57
(UTC-04:00)

Tiros 1 - Pass Details

Date: 02 April 2023
Orbit: 627 x 661 km, 48.4° (Epoch: 09 June)

Event Time Altitude Azimuth Distance (km) Brightness Sun altitude
Rises 06:03:15 0° 275° (W) 2,982 - -9.5°
Exits shadow 06:05:27 - 280° (W) 2,148 9.3 -9.2°
Reaches altitude 10° 06:05:39 10° 280° (W) 2,073 9.2 -9.1°
Maximum altitude 06:10:20 52° 357° (N) 825 7.8 -8.3°
Drops below altitude 10° 06:15:02 10° 74° (ENE) 2,077 11.6 -7.5°
Sets 06:17:26 0° 80° (E) 2,988 13.2 -7.1°
